Location: Altmatt
(47.1333°N, 8.7000°E)
Time: 03:02:10
(UTC+00:00)

Meteor 2-12 Rocket - Pass Details

Date: 13 July 2020
Orbit: 936 x 957 km, 82.5° (Epoch: 04 August)

Event Time Altitude Azimuth Distance (km) Brightness Sun altitude
Exits shadow 22:21:00 28° 194° (SSW) 1,692 5.3 -19.4°
Maximum altitude 22:24:24 82° 278° (W) 969 4.5 -19.6°
Drops below altitude 10° 22:30:36 10° 8° (N) 2,697 7.8 -19.9°
Sets 22:33:07 0° 9° (N) 3,648 8.7 -20.0°
